{"data":{"norad_id":64183,"epoch":"2026-05-25T03:32:26.310336Z","epoch_age_seconds":58184,"freshness":"FRESH","line1":"1 64183U 25113P   26145.14752674  .00011435  00000+0  37950-3 0  9998","line2":"2 64183  53.1577  95.8169 0001230  93.4445 266.6697 15.31716085 56779","mean_motion":15.31716085,"eccentricity":0.000123,"inclination_deg":53.1577,"raan_deg":95.8169,"arg_perigee_deg":93.4445,"mean_anomaly_deg":266.6697,"bstar":0.0003795,"rev_number":5677,"period_min":94.01220070102,"perigee_km":469.84964112445,"apogee_km":471.53445307004,"semimajor_km":6848.8290470972,"source":"CELESTRAK","updated_at":"2026-05-25T13:38:20.312078Z"}}